Location: Dead Woman Crossing
(43.5369°N, 106.3228°W)
Time: 00:51:11
(UTC+00:00)

UWE-3 - Pass Details

Date: 07 July 2022
Orbit: 583 x 677 km, 97.7° (Epoch: 16 August)

Event Time Altitude Azimuth Distance (km) Brightness Sun altitude
Rises 09:10:03 0° 34° (NE) 2,938 ? -18.4°
Reaches altitude 10° 09:13:34 10° 64° (ENE) 2,046 ? -18.1°
Maximum altitude 09:15:27 12° 90° (E) 1,894 ? -17.9°
Drops below altitude 10° 09:17:21 10° 115° (ESE) 2,062 ? -17.7°
Enters shadow 09:20:46 - 143° (SE) 2,938 ? -17.4°
